Weather reports worldwide

Advertisment
Metz-Nancy-Lorraine, France (7093): temperature & dewpoint: 19.09.2018 23:00:00 - 25.09.2018 23:00:00 (CEST)Metz-Nancy-Lorraine, France (7093): wind speed & gusts: 19.09.2018 23:00:00 - 25.09.2018 23:00:00 (CEST)Metz-Nancy-Lorraine, France (7093): wind direction: 19.09.2018 23:00:00 - 25.09.2018 23:00:00 (CEST)Metz-Nancy-Lorraine, France (7093): reduced air pressure: 19.09.2018 23:00:00 - 25.09.2018 23:00:00 (CEST)Metz-Nancy-Lorraine, France (7093): visibility: 19.09.2018 23:00:00 - 25.09.2018 23:00:00 (CEST)Metz-Nancy-Lorraine, France (7093): sunshine duration: 19.09.2018 23:00:00 - 25.09.2018 23:00:00 (CEST)Metz-Nancy-Lorraine, France (7093): precipitation: 19.09.2018 23:00:00 - 25.09.2018 23:00:00 (CEST)
Date & Time tt [°C] td [°C] ff [km/h] ff [kn] fx [km/h] fx [kn] dd ppp [hPa] vv [km] sd [min] rr [mm]
25.09.2018 23:00:00 7,8 2,3 12 7 18 10 ENE 1037,1 58 0 0,0
25.09.2018 22:00:00 8,7 2,5 14 7 21 11 ENE 1036,8 59 0 0,0
25.09.2018 21:00:00 10,0 2,1 13 7 22 12 E 1036,5 59 0 0,0
25.09.2018 20:00:00 11,1 1,3 14 8 31 17 E 1036,0 60 1 0,0
25.09.2018 19:00:00 13,7 1,0 23 12 39 21 E 1035,4 49 56 0,0
25.09.2018 18:00:00 15,1 0,5 27 15 40 21 E 1035,5 56 60 0,0
25.09.2018 17:00:00 15,6 1,7 24 13 44 24 E 1035,9 46 60 0,0
25.09.2018 16:00:00 16,0 2,4 25 13 40 22 E 1036,3 40 60 0,0
25.09.2018 15:00:00 15,2 2,4 28 15 40 22 E 1036,9 39 60 0,0
25.09.2018 14:00:00 14,9 3,1 26 14 39 21 E 1037,1 40 60 0,0
25.09.2018 13:00:00 13,7 3,7 25 14 48 26 E 1037,6 35 60 0,0
25.09.2018 12:00:00 13,0 4,2 22 12 40 21 ENE 1038,1 38 58 0,0
25.09.2018 11:00:00 11,5 5,4 21 11 34 18 ENE 1038,2 36 60 0,0
25.09.2018 10:00:00 9,2 5,4 21 11 28 15 NE 1038,4 31 60 0,0
25.09.2018 09:00:00 6,3 4,6 8 5 19 10 NE 1038,1 14 60 0,0
25.09.2018 08:00:00 4,6 3,6 6 3 15 8 NNE 1038,0 12 11 0,0
25.09.2018 07:00:00 3,9 2,6 4 2 12 7 NNE 1037,9 11 0 0,0
25.09.2018 06:00:00 5,4 3,9 7 4 13 7 NNE 1037,6 17 0 0,0
25.09.2018 05:00:00 5,6 3,3 5 3 16 9 NE 1037,7 15 0 0,0
25.09.2018 04:00:00 6,3 4,6 9 5 17 9 NE 1037,6 23 0 0,0
25.09.2018 03:00:00 6,1 4,3 10 6 16 9 NNE 1037,7 26 0 0,0
25.09.2018 02:00:00 6,6 4,3 13 7 22 12 NNE 1037,7 43 0 0,0
25.09.2018 01:00:00 8,0 4,9 18 10 23 13 NE 1037,4 55 0 0,0
25.09.2018 00:00:00 7,4 4,7 11 6 20 11 NE 1037,3 55 0 0,0
24.09.2018 23:00:00 9,4 5,0 12 6 16 9 NNE 1036,7 60 0 0,0
24.09.2018 22:00:00 9,7 5,3 12 6 19 10 N 1036,5 59 0 0,0
24.09.2018 21:00:00 10,1 5,1 12 6 16 9 NNE 1036,1 60 0 0,0
24.09.2018 20:00:00 11,5 5,1 5 3 16 8 N 1035,5 60 0 0,0
24.09.2018 19:00:00 12,7 5,4 11 6 19 11 NNE 1034,8 60 13 0,0
24.09.2018 18:00:00 14,7 3,5 15 8 29 15 N 1034,1 59 26 0,0
24.09.2018 17:00:00 14,4 3,2 17 9 30 16 N 1034,2 59 27 0,0
24.09.2018 16:00:00 15,2 3,6 21 11 33 18 N 1034,2 29 33 0,0
24.09.2018 15:00:00 14,7 3,8 22 12 36 20 N 1034,5 57 51 0,0
24.09.2018 14:00:00 14,8 3,9 15 8 35 19 NNE 1034,7 53 51 0,0
24.09.2018 13:00:00 14,0 4,0 16 9 31 17 N 1035,2 30 50 0,0
24.09.2018 12:00:00 12,8 6,4 14 7 30 16 N 1035,2 39 60 0,0
24.09.2018 11:00:00 11,2 6,7 11 6 22 12 N 1035,3 30 60 0,0
24.09.2018 10:00:00 9,7 7,0 8 5 14 8 N 1034,8 25 58 0,0
24.09.2018 09:00:00 7,6 6,5 6 4 9 5 N 1034,1 10 60 0,0
24.09.2018 08:00:00 6,5 5,9 5 3 11 6 NW 1033,4 4,3 13 0,0
24.09.2018 07:00:00 6,4 5,8 6 3 14 8 NW 1032,5 7 0 0,0
24.09.2018 06:00:00 6,5 5,8 10 5 12 7 NW 1031,7 12 0 0,0
24.09.2018 05:00:00 6,8 5,7 9 5 16 8 NW 1030,8 29 0 0,0
24.09.2018 04:00:00 7,1 6,0 11 6 20 11 NW 1029,8 44 0 0,0
24.09.2018 03:00:00 7,6 5,9 15 8 21 12 NW 1029,1 60 0 0,0
24.09.2018 02:00:00 8,6 6,7 13 7 24 13 NW 1028,0 60 0 0,0
24.09.2018 01:00:00 9,9 6,6 15 8 29 16 NNW 1026,5 60 0 0,0
24.09.2018 00:00:00 10,1 7,3 23 13 34 19 NW 1025,3 60 0 0,0
23.09.2018 23:00:00 10,5 7,4 20 11 34 19 NW 1023,4 60 0 0,0
23.09.2018 22:00:00 10,7 8,1 20 11 40 22 NW 1021,5 60 0 0,0
23.09.2018 21:00:00 11,7 9,8 25 13 49 26 NW 1019,5 58 0 0,0
23.09.2018 20:00:00 12,2 9,9 29 16 56 30 NW 1016,8 60 0 0,0
23.09.2018 19:00:00 13,5 11,9 34 18 58 31 NW 1013,3 11 0 0,6
23.09.2018 18:00:00 15,5 13,9 38 21 89 48 WNW 1010,4 27 0 1,8
23.09.2018 17:00:00 18,5 16,7 45 24 90 49 W 1009,6 0,8 0 3,3
23.09.2018 16:00:00 19,6 17,7 54 29 86 46 SW 1008,1 13 0 0,6
23.09.2018 15:00:00 19,5 17,6 45 25 71 38 SW 1009,6 7 0 0,0
23.09.2018 14:00:00 20,4 17,4 43 23 72 39 SW 1010,8 3,4 7 0,0
23.09.2018 13:00:00 19,6 18,1 40 21 62 33 SW 1011,8 8 0 0,0
23.09.2018 12:00:00 18,8 17,8 36 20 54 29 SW 1012,6 8 0 0,0
23.09.2018 11:00:00 18,6 17,6 37 20 56 30 SW 1013,3 12 2 0,0
23.09.2018 10:00:00 18,0 17,2 38 20 55 30 SW 1013,3 9 0 0,0
23.09.2018 09:00:00 17,0 16,4 36 19 55 30 SW 1013,6 3,8 0 0,2
23.09.2018 08:00:00 16,6 15,6 27 14 50 27 SW 1013,9 9 0 0,2
23.09.2018 07:00:00 18,3 14,8 32 18 56 30 SW 1013,7 60 0 0,0
23.09.2018 06:00:00 17,5 13,8 29 15 51 28 SW 1013,9 60 0 0,0
23.09.2018 05:00:00 16,5 13,4 36 20 51 28 SW 1014,5 10 0 0,0
23.09.2018 04:00:00 15,9 11,7 27 14 42 23 SSW 1015,3 60 0 0,0
23.09.2018 03:00:00 14,1 11,4 20 11 33 18 S 1016,5 51 0 0,0
23.09.2018 02:00:00 13,8 11,3 20 11 41 22 SSW 1017,2 57 0 0,2
23.09.2018 01:00:00 14,8 8,7 14 8 28 15 SSW 1017,8 56 0 0,0
23.09.2018 00:00:00 13,2 8,9 15 8 31 17 SE 1018,8 60 0 0,0
22.09.2018 23:00:00 12,9 9,3 10 5 15 8 SE 1019,9 60 0 0,0
22.09.2018 22:00:00 14,1 8,5 8 4 16 9 SSW 1019,8 25 0 0,0
22.09.2018 21:00:00 13,7 9,3 10 5 11 6 SE 1020,1 60 0 0,0
22.09.2018 20:00:00 14,7 8,2 5 3 12 7 N 1020,3 19 0 0,2
22.09.2018 19:00:00 16,0 6,1 11 6 22 12 W 1020,3 59 0 0,0
22.09.2018 18:00:00 16,4 5,0 17 9 27 14 W 1020,7 60 0 0,0
22.09.2018 17:00:00 17,1 4,7 14 8 51 27 WSW 1021,0 60 6 0,0
22.09.2018 16:00:00 18,0 4,2 24 13 41 22 W 1021,6 60 23 0,0
22.09.2018 15:00:00 17,5 4,8 18 10 37 20 WSW 1022,2 31 37 0,0
22.09.2018 14:00:00 16,4 5,4 19 11 42 23 WSW 1023,0 40 48 0,0
22.09.2018 13:00:00 16,2 5,8 20 11 36 19 WSW 1023,2 43 55 0,0
22.09.2018 12:00:00 14,7 6,3 18 10 32 17 SW 1024,1 42 50 0,0
22.09.2018 11:00:00 13,4 6,9 16 9 24 13 SW 1024,6 39 14 0,0
22.09.2018 10:00:00 12,0 6,7 19 10 29 15 SW 1024,7 41 33 0,0
22.09.2018 09:00:00 10,6 6,7 15 8 24 13 S 1024,6 49 25 0,0
22.09.2018 08:00:00 8,8 6,1 16 8 21 12 S 1024,9 17 0 0,0
22.09.2018 07:00:00 8,2 5,5 16 9 22 12 S 1024,2 60 0 0,0
22.09.2018 06:00:00 9,1 5,5 16 8 25 13 S 1023,8 60 0 0,0
22.09.2018 05:00:00 9,8 6,0 16 9 22 12 SSW 1024,2 60 0 0,0
22.09.2018 04:00:00 10,5 5,7 16 9 24 13 SW 1023,4 60 0 0,0
22.09.2018 03:00:00 9,8 5,2 16 9 23 12 WSW 1023,3 60 0 0,0
22.09.2018 02:00:00 9,8 5,4 17 9 22 12 SW 1023,1 60 0 0,0
22.09.2018 01:00:00 11,5 4,5 18 10 26 14 W 1022,5 60 0 0,0
22.09.2018 00:00:00 10,6 4,9 13 7 24 13 WSW 1022,4 60 0 0,0
21.09.2018 23:00:00 11,1 5,2 18 10 26 14 SW 1021,6 60 0 0,0
21.09.2018 22:00:00 12,1 5,9 21 11 25 13 SW 1020,7 60 0 0,0
21.09.2018 21:00:00 12,6 6,4 14 7 27 14 WSW 1019,8 60 0 0,0
21.09.2018 20:00:00 14,5 5,8 19 10 39 21 W 1018,3 60 12 0,0
21.09.2018 19:00:00 15,8 6,8 23 12 47 25 W 1016,9 56 34 0,0
21.09.2018 18:00:00 16,1 9,7 24 13 48 26 W 1016,3 59 39 0,0
21.09.2018 17:00:00 15,2 10,6 32 17 50 27 W 1015,4 59 22 0,0
21.09.2018 16:00:00 13,9 11,6 23 13 37 20 WSW 1014,9 34 1 0,0
21.09.2018 15:00:00 12,6 10,7 22 12 45 25 W 1014,1 18 0 0,0
21.09.2018 14:00:00 13,4 11,6 31 17 56 30 W 1013,5 17 0 0,6
21.09.2018 13:00:00 18,6 14,1 32 17 57 31 WSW 1011,2 14 0 0,2
21.09.2018 12:00:00 20,2 12,7 35 19 53 29 WSW 1011,0 15 0 0,0
21.09.2018 11:00:00 20,5 12,2 32 18 47 26 SW 1011,0 27 0 0,0
21.09.2018 10:00:00 20,2 12,4 29 16 47 25 SW 1010,9 37 0 0,0
21.09.2018 09:00:00 19,6 12,8 30 16 42 23 SW 1010,4 40 7 0,0
21.09.2018 08:00:00 18,5 12,9 21 11 41 22 SSW 1010,7 40 8 0,0
21.09.2018 07:00:00 18,2 12,4 19 11 29 16 S 1010,0 44 0 0,0
21.09.2018 06:00:00 18,5 12,5 16 9 23 13 SW 1010,6 46 0 0,0
21.09.2018 05:00:00 17,2 12,5 15 8 27 14 SSE 1011,2 37 0 0,0
21.09.2018 04:00:00 17,6 12,7 23 13 31 17 SSE 1011,5 34 0 0,0
21.09.2018 03:00:00 18,1 13,0 26 14 31 17 SSE 1012,0 37 0 0,0
21.09.2018 02:00:00 17,8 12,9 24 13 27 15 SSE 1012,5 36 0 0,0
21.09.2018 01:00:00 18,7 13,1 24 13 28 15 SSE 1012,9 38 0 0,0
21.09.2018 00:00:00 19,8 13,7 19 11 23 12 SSE 1013,3 40 0 0,0
20.09.2018 23:00:00 19,2 13,6 19 10 22 12 SSE 1013,8 44 0 0,0
20.09.2018 22:00:00 19,8 13,5 18 10 20 11 SSE 1014,4 36 0 0,0
20.09.2018 21:00:00 21,0 13,4 14 7 16 8 S 1014,7 49 0 0,0
20.09.2018 20:00:00 21,7 13,1 11 6 19 10 S 1014,9 19 0 0,0
20.09.2018 19:00:00 25,2 13,7 13 7 23 13 SSW 1015,1 54 54 0,0
20.09.2018 18:00:00 26,4 13,5 16 9 28 15 SW 1015,6 44 60 0,0
20.09.2018 17:00:00 26,3 13,1 19 10 33 18 SW 1016,2 56 60 0,0
20.09.2018 16:00:00 26,4 13,5 20 11 34 18 WSW 1017,1 18 60 0,0
20.09.2018 15:00:00 25,9 12,7 19 10 36 19 SW 1017,7 33 60 0,0
20.09.2018 14:00:00 25,2 13,4 18 10 33 18 W 1018,5 20 60 0,0
20.09.2018 13:00:00 24,1 13,3 18 10 36 19 WSW 1019,2 42 60 0,0
20.09.2018 12:00:00 23,5 13,1 18 10 34 18 SW 1019,8 35 60 0,0
20.09.2018 11:00:00 21,9 13,5 18 10 28 15 SW 1020,3 31 60 0,0
20.09.2018 10:00:00 19,7 14,1 9 5 15 8 SSW 1020,4 34 60 0,0
20.09.2018 09:00:00 17,6 13,9 8 4 19 10 SSW 1020,5 35 60 0,0
20.09.2018 08:00:00 15,2 13,4 18 10 21 11 SSE 1020,5 25 12 0,0
20.09.2018 07:00:00 15,2 13,0 18 10 21 11 S 1020,4 26 0 0,0
20.09.2018 06:00:00 15,6 13,1 16 9 18 10 S 1020,5 29 0 0,0
20.09.2018 05:00:00 15,5 13,3 16 9 18 10 S 1020,4 29 0 0,0
20.09.2018 04:00:00 15,8 13,1 13 7 15 8 SSW 1020,5 27 0 0,0
20.09.2018 03:00:00 16,6 13,3 10 5 12 6 SSW 1020,3 39 0 0,0
20.09.2018 02:00:00 17,7 13,0 7 4 8 5 WSW 1020,4 41 0 0,0
20.09.2018 01:00:00 16,3 12,5 3 2 6 3 WNW 1020,7 47 0 0,0
20.09.2018 00:00:00 19,1 13,5 4 2 6 3 WNW 1020,4 49 0 0,0
19.09.2018 23:00:00 20,9 14,1 6 3 17 9 NW 1019,9 45 0 0,0

tt = temperature
td = dewpoint
ff = wind speed
fx = gusts
dd = wind direction
ppp = reduced air pressure
vv = visibility
sd = sunshine duration
rr = precipitation

Next stations